STARLINK-4166 (53291 NORAD) Tracking and Keplerian Element Data

This shows tracking and keplerian element data for the satellite.

Feedback or suggestion? Click here.




ElementValue
Catalog53291
NameSTARLINK-4166
Epoch Orbit130
Epoch Day269.91667824
Epoch Year2022
RAAN84.6967
Inclination53.2156
Eccentricity0.0002425
Argument of Perigee23.3142
Mean Anonmoly128.6839
Mean Motion15.7318051
Decay Rate0.00067927
L11 53291U 22086BB 22269.91667824 .00067927 00000+0 48486-3 0 9995
L22 53291 53.2156 84.6967 0002425 23.3142 128.6839 15.73180510 1304

Live tracking and technical data element details for STARLINK-4166 (NORAD 53291). STARLINK-4166 can be tracked NOW for your location showing map with azimuth and elevation plus other details from your city location.

Track the satellite on the map from your city or location and see movement details for azimuth, elevation, latitude, longitude, range, height, and movement on the map or in text.







IsCatalogInMostPopularTable: catalog: 53291, numindb: 3
Update: records affected: 1



GetName: 53291 STARLINK-4166

Hit Count: updated at: Fri, 30 Sep 2022 02:59:41 GMT